Galax, VA

10:38 AM EDT on April 29, 2017 (GMT -0400)
Twin County

Weather History for KHLX - March, 2013

Change the Weather History Date:

Monday, March 18, 2013

  Actual Average (KBLF) Record (KBLF)
Temperature  
Mean Temperature 36 °F -  
Max Temperature 37 °F 51 °F 73 °F (1982)
Min Temperature 35 °F 32 °F 8 °F (1967)
Degree Days  
Heating Degree Days 29    
Moisture  
Dew Point 35 °F    
Average Humidity 97    
Maximum Humidity 100    
Minimum Humidity 93    
Precipitation  
Precipitation 0.30 in - - ()
Sea Level Pressure  
Sea Level Pressure 30.01 in    
Wind  
Wind Speed 5 mph (SE)    
Max Wind Speed 10 mph    
Max Gust Speed 17 mph    
Visibility 3 miles    
Events Fog    
Averages and records for this station are not official NWS values.
T = Trace of Precipitation, MM = Missing Value Source: NWS Daily Summary

Daily Weather History Graph

Daily Weather History Graph

Search for Another Location

Airport or City:

Trip Planner

Search our weather history database for the weather conditions in past years. The results will help you decide how hot, cold, wet, or windy it might be!

Date:

Astronomy

Mar. 18, 2013 Rise Set
Actual Time 7:29 AM EDT 7:33 PM EDT
Civil Twilight 7:03 AM EDT 7:59 PM EDT
Nautical Twilight 6:33 AM EDT 8:29 PM EDT
Astronomical Twilight 6:03 AM EDT 9:00 PM EDT
Moon 11:36 AM EDT (3/18) 1:23 AM EDT (3/18)
Length of Visible Light 12h 55m
Length of Day
12h 04m
Waxing Crescent, 40% of the Moon is Illuminated
Mar 18
Waxing Crescent
Mar 19
First Quarter
Mar 27
Full
Apr 3
Last Quarter
Apr 10
New

Hourly Weather History & Observations

Time (EDT) Temp. Windchill Dew Point Humidity Pressure Visibility Wind Dir Wind Speed Gust Speed Precip Events Conditions
12:15 AM 37.4 °F 33.8 °F 37.4 °F 100% 30.12 in 5.0 mi East 4.6 mph - N/A   Overcast
12:35 AM 37.4 °F 31.4 °F 37.4 °F 100% 30.10 in 4.0 mi East 8.1 mph - N/A   Overcast
12:55 AM 37.4 °F 33.8 °F 37.4 °F 100% 30.11 in 2.5 mi ESE 4.6 mph - N/A   Overcast
1:15 AM 37.4 °F 32.1 °F 37.4 °F 100% 30.09 in 2.0 mi ESE 6.9 mph - 0.01 in   Overcast
1:35 AM 37.4 °F 32.1 °F 35.6 °F 93% 30.10 in 2.5 mi ESE 6.9 mph - 0.01 in   Overcast
1:55 AM 37.4 °F 32.8 °F 35.6 °F 93% 30.10 in 2.0 mi East 5.8 mph - 0.01 in   Overcast
2:15 AM 37.4 °F 34.9 °F 37.4 °F 100% 30.10 in 2.0 mi ESE 3.5 mph - 0.01 in   Overcast
2:35 AM 37.4 °F 32.8 °F 37.4 °F 100% 30.10 in 2.5 mi East 5.8 mph - 0.02 in   Overcast
2:55 AM 37.4 °F 33.8 °F 37.4 °F 100% 30.09 in 2.5 mi ESE 4.6 mph - N/A   Overcast
3:15 AM 37.4 °F 33.8 °F 37.4 °F 100% 30.10 in 2.5 mi ESE 4.6 mph - N/A   Overcast
3:35 AM 37.4 °F 34.9 °F 37.4 °F 100% 30.09 in 2.5 mi ESE 3.5 mph - 0.01 in   Overcast
3:55 AM 37.4 °F 33.8 °F 37.4 °F 100% 30.08 in 2.5 mi SE 4.6 mph - N/A   Overcast
4:15 AM 37.4 °F 33.8 °F 37.4 °F 100% 30.09 in 5.0 mi SSE 4.6 mph - 0.01 in   Overcast
4:35 AM 37.4 °F 32.1 °F 37.4 °F 100% 30.08 in 3.0 mi SE 6.9 mph - 0.01 in   Overcast
4:55 AM 37.4 °F 33.8 °F 35.6 °F 93% 30.08 in 2.5 mi SE 4.6 mph - N/A   Overcast
5:15 AM 37.4 °F 33.8 °F 35.6 °F 93% 30.09 in 3.0 mi SSE 4.6 mph - N/A   Overcast
5:35 AM 37.4 °F - 35.6 °F 93% 30.09 in 3.0 mi Calm Calm - N/A   Overcast
5:55 AM 35.6 °F 30.7 °F 35.6 °F 100% 30.08 in 3.0 mi SE 5.8 mph - N/A   Overcast
6:15 AM 35.6 °F 30.7 °F 35.6 °F 100% 30.09 in 3.0 mi SE 5.8 mph - N/A   Overcast
6:35 AM 35.6 °F - 35.6 °F 100% 30.10 in 2.5 mi Calm Calm - N/A   Overcast
6:55 AM 35.6 °F 30.7 °F 35.6 °F 100% 30.10 in 3.0 mi SE 5.8 mph - N/A   Overcast
7:15 AM 35.6 °F 29.9 °F 35.6 °F 100% 30.09 in 2.5 mi SE 6.9 mph - 0.01 in   Overcast
7:35 AM 35.6 °F 31.7 °F 35.6 °F 100% 30.08 in 1.8 mi SE 4.6 mph - 0.01 in   Overcast
7:55 AM 35.6 °F - 35.6 °F 100% 30.09 in 2.0 mi Calm Calm - N/A   Overcast
8:15 AM 35.6 °F 29.9 °F 35.6 °F 100% 30.09 in 0.8 mi SE 6.9 mph - N/A   Overcast
8:35 AM 35.6 °F 29.2 °F 33.8 °F 93% 30.09 in 2.0 mi SE 8.1 mph - N/A   Overcast
8:55 AM 35.6 °F 30.7 °F 33.8 °F 93% 30.09 in 3.0 mi SE 5.8 mph - N/A   Overcast
9:15 AM 35.6 °F 28.0 °F 33.8 °F 93% 30.08 in 2.0 mi SE 10.4 mph 16.1 mph N/A   Overcast
9:35 AM 35.6 °F 29.9 °F 33.8 °F 93% 30.09 in 3.0 mi SE 6.9 mph - N/A   Overcast
9:55 AM 35.6 °F 28.6 °F 33.8 °F 93% 30.06 in 2.5 mi SE 9.2 mph 17.3 mph N/A   Overcast
10:15 AM 35.6 °F 28.6 °F 33.8 °F 93% 30.06 in 4.0 mi SE 9.2 mph 16.1 mph N/A   Overcast
10:35 AM 35.6 °F 28.6 °F 33.8 °F 93% 30.06 in 3.0 mi SE 9.2 mph 17.3 mph N/A   Overcast
10:55 AM 35.6 °F 31.7 °F 33.8 °F 93% 30.09 in 3.0 mi SE 4.6 mph - N/A   Overcast
11:15 AM 35.6 °F 30.7 °F 33.8 °F 93% 30.07 in 2.5 mi SE 5.8 mph - N/A   Overcast
11:35 AM 35.6 °F 31.7 °F 33.8 °F 93% 30.06 in 2.5 mi SE 4.6 mph - N/A   Overcast
11:55 AM 35.6 °F 29.2 °F 33.8 °F 93% 30.05 in 1.5 mi ESE 8.1 mph - N/A   Overcast
12:15 PM 35.6 °F 29.9 °F 33.8 °F 93% 30.05 in 2.0 mi SSE 6.9 mph - N/A   Overcast
12:35 PM 35.6 °F 28.6 °F 33.8 °F 93% 30.03 in 5.0 mi SE 9.2 mph - N/A   Overcast
12:55 PM 35.6 °F 28.6 °F 33.8 °F 93% 30.02 in 3.0 mi SE 9.2 mph - N/A   Overcast
1:15 PM 35.6 °F 29.2 °F 33.8 °F 93% 30.02 in 4.0 mi SSE 8.1 mph - N/A   Overcast
1:35 PM 35.6 °F 31.7 °F 33.8 °F 93% 30.01 in 2.5 mi SSE 4.6 mph - N/A   Overcast
1:55 PM 35.6 °F 32.8 °F 33.8 °F 93% 30.00 in 1.0 mi SSE 3.5 mph - N/A   Overcast
2:15 PM 35.6 °F 29.9 °F 33.8 °F 93% 29.99 in 2.0 mi South 6.9 mph - N/A   Overcast
2:35 PM 35.6 °F 30.7 °F 35.6 °F 100% 29.97 in 2.0 mi SSE 5.8 mph - N/A   Overcast
2:55 PM 35.6 °F - 33.8 °F 93% 29.96 in 3.0 mi Calm Calm - 0.01 in   Overcast
3:15 PM 35.6 °F 32.8 °F 33.8 °F 93% 29.96 in 2.5 mi SE 3.5 mph - 0.01 in   Overcast
3:35 PM 35.6 °F 32.8 °F 35.6 °F 100% 29.97 in 0.8 mi South 3.5 mph - 0.03 in   Overcast
3:55 PM 35.6 °F - 35.6 °F 100% 29.96 in 0.8 mi Calm Calm - 0.01 in   Overcast
4:15 PM 35.6 °F - 35.6 °F 100% 29.94 in 1.8 mi Calm Calm - 0.02 in   Overcast
4:35 PM 35.6 °F 30.7 °F 35.6 °F 100% 29.93 in 2.5 mi ESE 5.8 mph - 0.03 in   Overcast
4:55 PM 35.6 °F 32.8 °F 35.6 °F 100% 29.95 in 1.5 mi ESE 3.5 mph - 0.01 in   Overcast
5:15 PM 35.6 °F 31.7 °F 35.6 °F 100% 29.94 in 5.0 mi ESE 4.6 mph - 0.04 in   Overcast
5:35 PM 35.6 °F - 35.6 °F 100% 29.96 in 7.0 mi Calm Calm - 0.04 in   Overcast
5:55 PM 35.6 °F 31.7 °F 35.6 °F 100% 29.98 in 3.0 mi WNW 4.6 mph - 0.01 in   Overcast
6:15 PM 35.6 °F - 35.6 °F 100% 29.96 in 5.0 mi Calm Calm - 0.05 in   Overcast
6:35 PM 35.6 °F - 35.6 °F 100% 29.95 in 7.0 mi Calm Calm - 0.06 in   Overcast
6:55 PM 35.6 °F - 35.6 °F 100% 29.95 in 4.0 mi Calm Calm - 0.02 in   Mostly Cloudy
7:15 PM 35.6 °F 32.8 °F 35.6 °F 100% 29.93 in 0.2 mi SSE 3.5 mph - 0.05 in   Overcast
7:35 PM 35.6 °F - 35.6 °F 100% 29.93 in 5.0 mi Calm Calm - 0.06 in   Overcast
7:55 PM 35.6 °F 31.7 °F 35.6 °F 100% 29.91 in 10.0 mi SSE 4.6 mph - 0.01 in   Mostly Cloudy
8:15 PM 35.6 °F 31.7 °F 35.6 °F 100% 29.88 in 5.0 mi South 4.6 mph - 0.01 in   Scattered Clouds
8:35 PM 35.6 °F - 35.6 °F 100% 29.87 in 1.2 mi Calm Calm - 0.01 in   Overcast
8:55 PM 37.4 °F 34.9 °F 35.6 °F 93% 29.87 in 7.0 mi SW 3.5 mph - N/A   Mostly Cloudy
9:15 PM 37.4 °F 32.1 °F 35.6 °F 93% 29.87 in 10.0 mi WSW 6.9 mph - N/A   Scattered Clouds
9:35 PM 37.4 °F 34.9 °F 35.6 °F 93% 29.87 in 7.0 mi SSW 3.5 mph - N/A   Mostly Cloudy
9:55 PM 37.4 °F 32.8 °F 35.6 °F 93% 29.88 in 7.0 mi SSW 5.8 mph - N/A   Overcast
10:15 PM 35.6 °F 29.9 °F 35.6 °F 100% 29.86 in 5.0 mi SSE 6.9 mph - N/A   Overcast
10:35 PM 35.6 °F - 35.6 °F 100% 29.85 in 0.8 mi Calm Calm - N/A   Overcast
10:55 PM 35.6 °F - 35.6 °F 100% 29.86 in 0.5 mi Calm Calm - N/A Fog Fog
11:15 PM 35.6 °F - 35.6 °F 100% 29.85 in 1.8 mi Calm Calm - N/A   Overcast
11:55 PM 35.6 °F 32.8 °F 35.6 °F 100% 29.86 in 0.5 mi South 3.5 mph - N/A Fog Fog